When you browse on this site, cookies collect data to enhance your experience and personalize the content and advertising you see.
Visit our Privacy Policy to learn more. By continuing to use the site, you agree to this use of cookies and data.
  • Em Portugal
  • Lista de países
  • Para 7 dias
  • Temperatura da água
  • Mapas de satélite
  • Mapa do tempo
  • Widgets de tempo
  • user-avatar
    Iniciar Sessão

    Previsão horária em Shannon

    Hoje, 18 Janeiro, Sexta-feira

    Tempo Temperatura Precipitação Vento Pressão Humidade
    00:00 +2°C° 0.4 mm 6 m/s 756 mmHg 85%
    01:00 +3°C° 0.4 mm 6 m/s 755 mmHg 88%
    02:00 +4°C° 0.4 mm 6 m/s 754 mmHg 91%
    03:00 +5°C° 0 mm 5 m/s 753 mmHg 93%
    04:00 +5°C° 0 mm 4 m/s 753 mmHg 94%
    05:00 +5°C° 0 mm 2 m/s 752 mmHg 96%
    06:00 +5°C° 0 mm 2 m/s 752 mmHg 96%
    07:00 +5°C° 0 mm 2 m/s 752 mmHg 95%
    08:00 +4°C° 0 mm 2 m/s 752 mmHg 95%
    09:00 +6°C° 0 mm 2 m/s 752 mmHg 93%
    10:00 +7°C° 0 mm 3 m/s 752 mmHg 91%
    11:00 +8°C° 0 mm 3 m/s 752 mmHg 90%
    12:00 +8°C° 0.1 mm 3 m/s 752 mmHg 90%
    13:00 +8°C° 0.1 mm 3 m/s 751 mmHg 91%
    14:00 +8°C° 0.1 mm 3 m/s 751 mmHg 91%
    15:00 +8°C° 0.7 mm 3 m/s 751 mmHg 93%
    16:00 +8°C° 0.7 mm 3 m/s 751 mmHg 94%
    17:00 +7°C° 0.7 mm 3 m/s 751 mmHg 96%
    18:00 +7°C° 0.3 mm 2 m/s 751 mmHg 96%
    19:00 +7°C° 0.3 mm 2 m/s 751 mmHg 96%
    20:00 +6°C° 0.3 mm 2 m/s 751 mmHg 96%
    21:00 +6°C° 0.3 mm 2 m/s 751 mmHg 96%
    22:00 +6°C° 0.3 mm 2 m/s 751 mmHg 96%
    23:00 +6°C° 0.3 mm 2 m/s 751 mmHg 96%

    Amanhã, 19 Janeiro, Sábado

    Tempo Temperatura Precipitação Vento Pressão Humidade
    00:00 +6°C° 0.1 mm 2 m/s 751 mmHg 95%
    01:00 +6°C° 0.1 mm 2 m/s 751 mmHg 95%
    02:00 +6°C° 0.1 mm 2 m/s 751 mmHg 95%
    03:00 +6°C° 0 mm 2 m/s 751 mmHg 95%
    04:00 +5°C° 0 mm 2 m/s 751 mmHg 95%
    05:00 +5°C° 0 mm 2 m/s 751 mmHg 95%
    06:00 +7°C° 0.1 mm 1 m/s 752 mmHg 95%
    07:00 +7°C° 0.1 mm 1 m/s 752 mmHg 95%
    08:00 +7°C° 0.1 mm 1 m/s 752 mmHg 95%
    09:00 +8°C° 0 mm 1 m/s 753 mmHg 94%
    10:00 +8°C° 0 mm 2 m/s 753 mmHg 92%
    11:00 +9°C° 0 mm 2 m/s 753 mmHg 90%
    12:00 +9°C° 0 mm 2 m/s 753 mmHg 90%
    13:00 +9°C° 0 mm 2 m/s 753 mmHg 91%
    14:00 +9°C° 0 mm 2 m/s 754 mmHg 91%
    15:00 +8°C° 0 mm 2 m/s 754 mmHg 93%
    16:00 +7°C° 0 mm 2 m/s 755 mmHg 94%
    17:00 +7°C° 0 mm 1 m/s 755 mmHg 96%
    18:00 +7°C° 0 mm 1 m/s 756 mmHg 96%
    19:00 +7°C° 0 mm 1 m/s 756 mmHg 96%
    20:00 +7°C° 0 mm 1 m/s 757 mmHg 96%
    21:00 +7°C° 0 mm 1 m/s 758 mmHg 96%
    22:00 +7°C° 0 mm 2 m/s 758 mmHg 95%
    23:00 +7°C° 0 mm 2 m/s 759 mmHg 94%

    Depois de amanhã, 20 Janeiro, Domingo

    Tempo Temperatura Precipitação Vento Pressão Humidade
    00:00 +7°C° 0.1 mm 3 m/s 760 mmHg 93%
    01:00 +6°C° 0.1 mm 4 m/s 760 mmHg 93%
    02:00 +6°C° 0.1 mm 5 m/s 761 mmHg 92%
    03:00 +6°C° 0.1 mm 5 m/s 762 mmHg 90%
    04:00 +5°C° 0.1 mm 5 m/s 762 mmHg 89%
    05:00 +4°C° 0.1 mm 6 m/s 763 mmHg 87%
    06:00 +3°C° 0 mm 5 m/s 764 mmHg 88%
    07:00 +3°C° 0 mm 5 m/s 765 mmHg 88%
    08:00 +4°C° 0 mm 4 m/s 766 mmHg 88%
    09:00 +4°C° 0 mm 4 m/s 767 mmHg 84%
    10:00 +3°C° 0 mm 5 m/s 767 mmHg 80%
    11:00 +5°C° 0 mm 5 m/s 768 mmHg 76%
    12:00 +5°C° 0 mm 4 m/s 769 mmHg 76%
    13:00 +5°C° 0 mm 4 m/s 769 mmHg 75%
    14:00 +5°C° 0 mm 3 m/s 769 mmHg 75%
    15:00 +4°C° 0 mm 3 m/s 770 mmHg 77%
    16:00 +4°C° 0 mm 2 m/s 770 mmHg 80%
    17:00 +4°C° 0 mm 2 m/s 771 mmHg 82%
    18:00 +4°C° 0 mm 1 m/s 771 mmHg 84%
    19:00 +3°C° 0 mm 1 m/s 771 mmHg 85%
    20:00 +3°C° 0 mm 1 m/s 772 mmHg 86%
    21:00 +3°C° 0 mm 1 m/s 772 mmHg 86%
    22:00 +3°C° 0 mm 1 m/s 772 mmHg 85%
    23:00 +1°C° 0 mm 0 m/s 772 mmHg 85%

    21 Janeiro, Segunda-feira

    Tempo Temperatura Precipitação Vento Pressão Humidade
    00:00 +2°C° 0 mm 1 m/s 771 mmHg 86%
    01:00 +2°C° 0 mm 1 m/s 771 mmHg 87%
    02:00 +1°C° 0 mm 2 m/s 770 mmHg 87%
    03:00 +2°C° 0 mm 2 m/s 770 mmHg 86%
    04:00 +2°C° 0 mm 2 m/s 769 mmHg 85%
    05:00 +2°C° 0 mm 3 m/s 769 mmHg 84%
    06:00 +2°C° 0 mm 3 m/s 768 mmHg 84%
    07:00 +1°C° 0 mm 4 m/s 767 mmHg 84%
    08:00 +1°C° 0 mm 4 m/s 766 mmHg 84%
    09:00 +3°C° 0 mm 5 m/s 765 mmHg 82%
    10:00 +4°C° 0 mm 6 m/s 763 mmHg 80%
    11:00 +5°C° 0 mm 7 m/s 761 mmHg 78%
    12:00 +5°C° 1.6 mm 8 m/s 760 mmHg 82%
    13:00 +5°C° 1.6 mm 8 m/s 759 mmHg 86%
    14:00 +5°C° 1.6 mm 9 m/s 758 mmHg 91%
    15:00 +4°C° 0.9 mm 8 m/s 758 mmHg 87%
    16:00 +3°C° 0.9 mm 6 m/s 758 mmHg 82%
    17:00 +2°C° 0.9 mm 5 m/s 758 mmHg 78%
    18:00 +1°C° 0.3 mm 6 m/s 758 mmHg 77%
    19:00 +1°C° 0.3 mm 6 m/s 758 mmHg 76%
    20:00 +1°C° 0.3 mm 6 m/s 758 mmHg 76%
    21:00 +1°C° 0.3 mm 6 m/s 757 mmHg 76%
    22:00 +1°C° 0.3 mm 6 m/s 757 mmHg 76%
    23:00 0°C° 0.3 mm 7 m/s 757 mmHg 76%

    22 Janeiro, Terça-feira

    Tempo Temperatura Precipitação Vento Pressão Humidade
    00:00 +1°C° 0.4 mm 6 m/s 756 mmHg 78%
    01:00 +1°C° 0.4 mm 6 m/s 756 mmHg 80%
    02:00 -1°C° 0.4 mm 6 m/s 756 mmHg 82%
    03:00 -1°C° 0.4 mm 6 m/s 756 mmHg 82%
    04:00 -1°C° 0.4 mm 6 m/s 755 mmHg 82%
    05:00 -1°C° 0.4 mm 6 m/s 755 mmHg 82%
    06:00 0°C° 0.4 mm 5 m/s 755 mmHg 83%
    07:00 0°C° 0.4 mm 5 m/s 755 mmHg 84%
    08:00 0°C° 0.4 mm 5 m/s 755 mmHg 86%
    09:00 0°C° 0.5 mm 5 m/s 755 mmHg 87%
    10:00 +1°C° 0.5 mm 5 m/s 755 mmHg 88%
    11:00 +1°C° 0.5 mm 5 m/s 755 mmHg 90%
    12:00 +1°C° 0.4 mm 5 m/s 754 mmHg 90%
    13:00 +1°C° 0.4 mm 5 m/s 754 mmHg 90%
    14:00 +1°C° 0.4 mm 4 m/s 754 mmHg 90%
    15:00 +1°C° 0.4 mm 4 m/s 754 mmHg 91%
    16:00 +2°C° 0.4 mm 3 m/s 753 mmHg 91%
    17:00 +2°C° 0.4 mm 3 m/s 753 mmHg 92%
    18:00 +2°C° 0.4 mm 3 m/s 753 mmHg 92%
    19:00 +2°C° 0.4 mm 3 m/s 753 mmHg 92%
    20:00 +2°C° 0.4 mm 3 m/s 753 mmHg 92%
    21:00 +2°C° 0.1 mm 3 m/s 753 mmHg 90%
    22:00 +1°C° 0.1 mm 3 m/s 753 mmHg 88%
    23:00 +1°C° 0.1 mm 3 m/s 754 mmHg 86%

    23 Janeiro, Quarta-feira

    Tempo Temperatura Precipitação Vento Pressão Humidade
    00:00 +1°C° 0.1 mm 3 m/s 754 mmHg 87%
    01:00 0°C° 0.1 mm 4 m/s 754 mmHg 87%
    02:00 +1°C° 0.1 mm 4 m/s 754 mmHg 88%
    03:00 +1°C° 0.1 mm 4 m/s 754 mmHg 88%
    04:00 +1°C° 0.1 mm 4 m/s 754 mmHg 88%
    05:00 +1°C° 0.1 mm 4 m/s 754 mmHg 88%
    06:00 +1°C° 0 mm 4 m/s 754 mmHg 87%
    07:00 +1°C° 0 mm 4 m/s 755 mmHg 86%
    08:00 +1°C° 0 mm 4 m/s 755 mmHg 86%
    09:00 +1°C° 0 mm 4 m/s 755 mmHg 86%
    10:00 +3°C° 0 mm 4 m/s 756 mmHg 86%
    11:00 +4°C° 0 mm 4 m/s 756 mmHg 87%
    12:00 +4°C° 0 mm 4 m/s 756 mmHg 86%
    13:00 +4°C° 0 mm 4 m/s 756 mmHg 86%
    14:00 +4°C° 0 mm 4 m/s 756 mmHg 86%
    15:00 +4°C° 0 mm 4 m/s 756 mmHg 86%
    16:00 +3°C° 0 mm 4 m/s 756 mmHg 86%
    17:00 +1°C° 0 mm 4 m/s 756 mmHg 86%
    18:00 +1°C° 0 mm 4 m/s 757 mmHg 86%
    19:00 +2°C° 0 mm 5 m/s 757 mmHg 86%
    20:00 +2°C° 0 mm 5 m/s 757 mmHg 86%
    21:00 +1°C° 0 mm 5 m/s 758 mmHg 86%
    22:00 +1°C° 0 mm 5 m/s 758 mmHg 86%
    23:00 0°C° 0 mm 5 m/s 759 mmHg 86%
    Mostrar mais